TimePST,TemperatureF,Dew PointF,Humidity,Sea Level PressureIn,VisibilityMPH,Wind Direction,Wind SpeedMPH,Gust SpeedMPH,PrecipitationIn,Events,Conditions,WindDirDegrees,DateUTC
12:56 AM,30.0,21.9,72,29.76,10.0,WSW,8.1,-,N/A,,Mostly Cloudy,250,2012-11-10 08:56:00
1:56 AM,25.0,19.0,78,29.77,10.0,North,3.5,-,N/A,,Mostly Cloudy,10,2012-11-10 09:56:00
2:56 AM,24.1,19.0,81,29.77,10.0,Calm,Calm,-,N/A,,Scattered Clouds,0,2012-11-10 10:56:00
3:56 AM,23.0,17.1,78,29.78,10.0,Calm,Calm,-,N/A,,Mostly Cloudy,0,2012-11-10 11:56:00
4:56 AM,27.0,19.9,75,29.79,10.0,Calm,Calm,-,N/A,,Overcast,0,2012-11-10 12:56:00
5:56 AM,28.9,21.9,75,29.80,10.0,SSW,5.8,-,N/A,,Overcast,210,2012-11-10 13:56:00
6:56 AM,28.9,23.0,78,29.82,8.0,South,6.9,-,0.00,Snow,Light Snow,180,2012-11-10 14:56:00
7:56 AM,30.9,24.1,76,29.84,10.0,South,9.2,-,0.00,,Overcast,180,2012-11-10 15:56:00
8:56 AM,33.1,23.0,66,29.86,10.0,SSW,4.6,-,N/A,,Overcast,210,2012-11-10 16:56:00
9:02 AM,33.8,21.2,60,29.94,10.0,SW,6.9,-,N/A,,Mostly Cloudy,220,2012-11-10 17:02:00
9:39 AM,32.0,24.8,75,29.97,5.0,NW,9.2,-,0.00,Snow,Light Snow,320,2012-11-10 17:39:00
9:56 AM,30.9,26.1,82,29.89,0.8,West,6.9,-,0.00,Snow,Light Snow,280,2012-11-10 17:56:00
10:04 AM,30.2,26.6,86,29.98,1.5,West,8.1,-,0.00,Snow,Light Snow,260,2012-11-10 18:04:00
10:12 AM,32.0,26.6,80,29.98,6.0,West,6.9,-,0.00,Snow,Light Snow,270,2012-11-10 18:12:00
10:21 AM,32.0,26.6,80,29.98,9.0,WSW,5.8,-,0.00,,Overcast,240,2012-11-10 18:21:00
10:37 AM,33.8,26.6,75,29.99,8.0,WNW,5.8,-,0.00,Snow,Light Snow,290,2012-11-10 18:37:00
10:56 AM,34.0,27.0,75,29.90,2.5,WSW,4.6,-,0.00,Snow,Light Snow,250,2012-11-10 18:56:00
11:11 AM,33.8,26.6,75,29.99,1.2,NW,4.6,-,0.00,Snow,Light Snow,310,2012-11-10 19:11:00
11:26 AM,32.0,28.4,87,29.99,3.0,North,5.8,-,0.00,Snow,Light Snow,350,2012-11-10 19:26:00
11:34 AM,32.0,26.6,80,29.98,6.0,NW,3.5,-,0.00,Snow,Light Snow,320,2012-11-10 19:34:00
11:45 AM,33.8,26.6,75,29.98,10.0,WNW,4.6,-,0.00,,Mostly Cloudy,300,2012-11-10 19:45:00
11:56 AM,36.0,27.0,70,29.89,10.0,West,5.8,-,0.00,,Mostly Cloudy,280,2012-11-10 19:56:00
12:56 PM,39.9,18.0,41,29.89,10.0,NW,18.4,-,N/A,,Mostly Cloudy,310,2012-11-10 20:56:00
1:56 PM,39.0,17.1,41,29.89,10.0,WNW,15.0,-,N/A,,Mostly Cloudy,300,2012-11-10 21:56:00
2:56 PM,37.9,16.0,41,29.91,10.0,NW,10.4,-,N/A,,Mostly Cloudy,320,2012-11-10 22:56:00
3:56 PM,37.9,12.9,36,29.93,10.0,NW,13.8,20.7,N/A,,Mostly Cloudy,320,2012-11-10 23:56:00
4:56 PM,33.1,17.1,52,29.95,10.0,NNW,9.2,-,N/A,,Mostly Cloudy,330,2012-11-11 00:56:00
5:56 PM,30.0,16.0,56,29.97,10.0,North,5.8,-,N/A,,Scattered Clouds,350,2012-11-11 01:56:00
6:56 PM,27.0,21.0,78,30.00,10.0,ENE,4.6,-,N/A,,Clear,60,2012-11-11 02:56:00
7:56 PM,26.1,19.9,78,30.02,10.0,Calm,Calm,-,N/A,,Overcast,0,2012-11-11 03:56:00
8:56 PM,26.1,18.0,71,30.04,10.0,Calm,Calm,-,N/A,,Partly Cloudy,0,2012-11-11 04:56:00
9:56 PM,24.1,17.1,75,30.06,10.0,SSW,4.6,-,N/A,,Overcast,210,2012-11-11 05:56:00
10:56 PM,23.0,16.0,74,30.07,10.0,SW,3.5,-,N/A,,Overcast,220,2012-11-11 06:56:00
11:56 PM,21.9,14.0,72,30.09,10.0,South,4.6,-,N/A,,Mostly Cloudy,180,2012-11-11 07:56:00